Time,TemperatureF,DewpointF,PressureIn,WindDirection,WindDirectionDegrees,WindSpeedMPH,WindSpeedGustMPH,Humidity,HourlyPrecipIn,Conditions,Clouds,dailyrainin,SolarRadiationWatts/m^2,SoftwareType,DateUTC
2013-08-19 00:00:00,70.0,59.7,29.94,East,95,8.0,13.0,70,0.00,FEW,SCT,0.00,0.0,WeatherDisplay:10.37,2013-08-19 10:00:00,
2013-08-19 00:10:00,69.9,59.3,29.94,ESE,113,5.0,12.0,69,0.00,SCT,SCT,0.00,0.0,WeatherDisplay:10.37,2013-08-19 10:10:00,
2013-08-19 00:20:00,69.8,59.1,29.94,East,99,2.0,10.0,69,0.00,SCT,SCT,0.00,0.0,WeatherDisplay:10.37,2013-08-19 10:20:00,
2013-08-19 00:30:00,69.6,59.4,29.94,East,100,5.0,10.0,70,0.00,SCT,SCT,0.00,0.0,WeatherDisplay:10.37,2013-08-19 10:30:00,
2013-08-19 00:40:00,69.4,59.2,29.93,East,99,6.0,12.0,70,0.00,SCT,SCT,0.00,0.0,WeatherDisplay:10.37,2013-08-19 10:40:00,
2013-08-19 00:50:00,69.3,58.7,29.93,East,99,3.0,12.0,69,0.00,SCT,SCT,0.00,0.0,WeatherDisplay:10.37,2013-08-19 10:50:00,
2013-08-19 01:00:00,69.0,58.0,29.93,ESE,102,5.0,12.0,68,0.00,SCT,SCT,0.00,0.0,WeatherDisplay:10.37,2013-08-19 11:00:00,
2013-08-19 01:10:00,68.9,57.1,29.92,East,100,3.0,10.0,66,0.00,CLR,SCT,0.00,0.0,WeatherDisplay:10.37,2013-08-19 11:10:00,
2013-08-19 01:20:00,68.8,55.2,29.92,East,97,5.0,10.0,62,0.00,CLR,SCT,0.00,0.0,WeatherDisplay:10.37,2013-08-19 11:20:00,
2013-08-19 01:30:00,69.2,54.7,29.91,ESE,107,5.0,12.0,60,0.00,CLR,SCT,0.00,0.0,WeatherDisplay:10.37,2013-08-19 11:30:00,
2013-08-19 01:40:00,69.6,53.7,29.91,ESE,114,10.0,15.0,57,0.00,CLR,SCT,0.00,0.0,WeatherDisplay:10.37,2013-08-19 11:40:00,
2013-08-19 01:50:00,69.8,53.9,29.90,ESE,107,7.0,12.0,57,0.00,CLR,SCT,0.00,0.0,WeatherDisplay:10.37,2013-08-19 11:50:00,
2013-08-19 02:00:00,69.4,54.5,29.90,East,99,3.0,9.0,59,0.00,CLR,SCT,0.00,0.0,WeatherDisplay:10.37,2013-08-19 12:00:00,
2013-08-19 02:10:00,69.1,54.2,29.90,East,100,3.0,10.0,59,0.00,CLR,SCT,0.00,0.0,WeatherDisplay:10.37,2013-08-19 12:10:00,
2013-08-19 02:20:00,69.2,54.3,29.90,ESE,106,5.0,9.0,59,0.00,CLR,SCT,0.00,0.0,WeatherDisplay:10.37,2013-08-19 12:20:00,
2013-08-19 02:30:00,69.0,54.5,29.90,ESE,103,2.0,8.0,60,0.00,CLR,SCT,0.00,0.0,WeatherDisplay:10.37,2013-08-19 12:30:00,
2013-08-19 02:40:00,68.5,54.9,29.90,ESE,105,2.0,7.0,62,0.00,CLR,SCT,0.00,0.0,WeatherDisplay:10.37,2013-08-19 12:40:00,
2013-08-19 02:50:00,68.0,54.1,29.90,East,97,2.0,9.0,61,0.00,CLR,SCT,0.00,0.0,WeatherDisplay:10.37,2013-08-19 12:50:00,
2013-08-19 03:00:00,67.8,53.4,29.90,ESE,103,2.0,9.0,60,0.00,CLR,SCT,0.00,0.0,WeatherDisplay:10.37,2013-08-19 13:00:00,
2013-08-19 03:10:00,67.5,53.1,29.89,ESE,102,2.0,7.0,60,0.00,CLR,SCT,0.00,0.0,WeatherDisplay:10.37,2013-08-19 13:10:00,
2013-08-19 03:20:00,67.2,52.8,29.90,ESE,103,3.0,8.0,60,0.00,CLR,SCT,0.00,0.0,WeatherDisplay:10.37,2013-08-19 13:20:00,
2013-08-19 03:30:00,67.1,52.7,29.90,ESE,109,2.0,8.0,60,0.00,CLR,SCT,0.00,0.0,WeatherDisplay:10.37,2013-08-19 13:30:00,
2013-08-19 03:40:00,66.8,53.4,29.90,ESE,114,1.0,7.0,62,0.00,CLR,SCT,0.00,0.0,WeatherDisplay:10.37,2013-08-19 13:40:00,
2013-08-19 03:50:00,66.5,53.9,29.89,ESE,111,2.0,7.0,64,0.00,CLR,SCT,0.00,0.0,WeatherDisplay:10.37,2013-08-19 13:50:00,
2013-08-19 04:00:00,66.5,54.4,29.90,ESE,103,3.0,10.0,65,0.00,CLR,SCT,0.00,0.0,WeatherDisplay:10.37,2013-08-19 14:00:00,
2013-08-19 04:10:00,66.5,54.8,29.89,East,100,3.0,8.0,66,0.00,CLR,SCT,0.00,0.0,WeatherDisplay:10.37,2013-08-19 14:10:00,
2013-08-19 04:20:00,66.2,54.9,29.90,ESE,120,1.0,6.0,67,0.00,CLR,SCT,0.00,0.0,WeatherDisplay:10.37,2013-08-19 14:20:00,
2013-08-19 04:30:00,65.7,55.6,29.90,ESE,102,6.0,10.0,70,0.00,CLR,SCT,0.00,0.0,WeatherDisplay:10.37,2013-08-19 14:30:00,
2013-08-19 04:40:00,66.3,55.8,29.90,East,93,7.0,13.0,69,0.00,CLR,SCT,0.00,0.0,WeatherDisplay:10.37,2013-08-19 14:40:00,
2013-08-19 04:50:00,66.6,55.7,29.90,ESE,102,2.0,9.0,68,0.00,CLR,SCT,0.00,0.0,WeatherDisplay:10.37,2013-08-19 14:50:00,
2013-08-19 05:00:00,66.4,55.5,29.90,ESE,111,3.0,7.0,68,0.00,CLR,SCT,0.00,0.0,WeatherDisplay:10.37,2013-08-19 15:00:00,
2013-08-19 05:10:00,66.0,55.9,29.90,ESE,115,2.0,6.0,70,0.00,CLR,SCT,0.00,0.0,WeatherDisplay:10.37,2013-08-19 15:10:00,
2013-08-19 05:20:00,66.0,55.9,29.90,East,97,6.0,12.0,70,0.00,CLR,SCT,0.00,0.0,WeatherDisplay:10.37,2013-08-19 15:20:00,
2013-08-19 05:30:00,66.4,55.9,29.90,East,97,6.0,12.0,69,0.00,CLR,SCT,0.00,0.0,WeatherDisplay:10.37,2013-08-19 15:30:00,
2013-08-19 05:40:00,66.6,55.7,29.90,East,101,5.0,10.0,68,0.00,CLR,SCT,0.00,0.0,WeatherDisplay:10.37,2013-08-19 15:40:00,
2013-08-19 05:50:00,66.7,55.4,29.90,East,101,5.0,11.0,67,0.00,CLR,SCT,0.00,0.0,WeatherDisplay:10.37,2013-08-19 15:50:00,
2013-08-19 06:00:00,66.9,55.6,29.90,East,88,5.0,13.0,67,0.00,CLR,SCT,0.00,0.0,WeatherDisplay:10.37,2013-08-19 16:00:00,
2013-08-19 06:10:00,66.7,55.8,29.90,ENE,78,6.0,10.0,68,0.00,CLR,SCT,0.00,0.1,WeatherDisplay:10.37,2013-08-19 16:10:00,
2013-08-19 06:20:00,66.7,55.8,29.91,East,79,6.0,10.0,68,0.00,CLR,SCT,0.00,0.4,WeatherDisplay:10.37,2013-08-19 16:20:00,
2013-08-19 06:30:00,66.7,58.5,29.91,East,83,9.0,13.0,75,0.00,CLR,SCT,0.00,0.9,WeatherDisplay:10.37,2013-08-19 16:30:00,
2013-08-19 06:40:00,67.0,59.5,29.91,East,85,5.0,14.0,77,0.00,CLR,SCT,0.00,3.6,WeatherDisplay:10.37,2013-08-19 16:40:00,
2013-08-19 06:50:00,67.3,60.2,29.91,East,90,6.0,15.0,78,0.00,CLR,SCT,0.00,16.0,WeatherDisplay:10.37,2013-08-19 16:50:00,
2013-08-19 07:00:00,67.9,60.0,29.91,East,87,8.0,12.0,76,0.00,CLR,SCT,0.00,5.2,WeatherDisplay:10.37,2013-08-19 17:00:00,
2013-08-19 07:10:00,68.4,60.2,29.92,ENE,69,6.0,15.0,75,0.00,CLR,SCT,0.00,6.7,WeatherDisplay:10.37,2013-08-19 17:10:00,
2013-08-19 07:20:00,69.0,60.0,29.92,East,88,2.0,12.0,73,0.00,CLR,SCT,0.00,51.9,WeatherDisplay:10.37,2013-08-19 17:20:00,
2013-08-19 07:30:00,69.5,60.1,29.92,East,96,1.0,8.0,72,0.00,CLR,SCT,0.00,61.5,WeatherDisplay:10.37,2013-08-19 17:30:00,
2013-08-19 07:40:00,70.1,61.8,29.92,ENE,69,6.0,10.0,75,0.00,CLR,SCT,0.00,94.8,WeatherDisplay:10.37,2013-08-19 17:40:00,
2013-08-19 07:50:00,70.6,62.7,29.92,ENE,67,3.0,10.0,76,0.00,CLR,SCT,0.00,114.7,WeatherDisplay:10.37,2013-08-19 17:50:00,
2013-08-19 08:00:00,71.4,62.2,29.92,East,81,3.0,12.0,73,0.00,CLR,SCT,0.00,135.7,WeatherDisplay:10.37,2013-08-19 18:00:00,
2013-08-19 08:10:00,72.9,62.5,29.92,East,93,5.0,10.0,70,0.00,FEW,SCT,0.00,153.8,WeatherDisplay:10.37,2013-08-19 18:10:00,
2013-08-19 08:20:00,73.8,63.0,29.92,ENE,75,5.0,13.0,69,0.00,FEW,SCT,0.00,174.9,WeatherDisplay:10.37,2013-08-19 18:20:00,
2013-08-19 08:30:00,74.7,63.0,29.93,ESE,105,2.0,12.0,67,0.00,FEW,SCT,0.00,196.2,WeatherDisplay:10.37,2013-08-19 18:30:00,
2013-08-19 08:40:00,76.0,64.2,29.93,ENE,76,5.0,9.0,67,0.00,FEW,SCT,0.00,246.5,WeatherDisplay:10.37,2013-08-19 18:40:00,
2013-08-19 08:50:00,76.3,64.5,29.93,ENE,68,2.0,13.0,67,0.00,FEW,SCT,0.00,293.3,WeatherDisplay:10.37,2013-08-19 18:50:00,
2013-08-19 09:00:00,76.8,64.2,29.93,East,82,8.0,16.0,65,0.00,FEW,SCT,0.00,342.3,WeatherDisplay:10.37,2013-08-19 19:00:00,
2013-08-19 09:10:00,77.3,65.5,29.93,East,83,5.0,14.0,67,0.00,FEW,SCT,0.00,380.3,WeatherDisplay:10.37,2013-08-19 19:10:00,
2013-08-19 09:20:00,78.7,64.1,29.93,ENE,78,8.0,13.0,61,0.00,FEW,SCT,0.00,406.6,WeatherDisplay:10.37,2013-08-19 19:20:00,
2013-08-19 09:30:00,79.1,65.4,29.93,ENE,77,9.0,21.0,63,0.00,FEW,SCT,0.00,313.3,WeatherDisplay:10.37,2013-08-19 19:30:00,
2013-08-19 09:40:00,78.6,65.4,29.93,East,80,8.0,16.0,64,0.00,FEW,SCT,0.00,152.0,WeatherDisplay:10.37,2013-08-19 19:40:00,
2013-08-19 09:50:00,76.9,63.8,29.94,East,93,3.0,12.0,64,0.00,FEW,SCT,0.00,196.1,WeatherDisplay:10.37,2013-08-19 19:50:00,
2013-08-19 10:00:00,76.5,64.7,29.94,East,91,3.0,12.0,67,0.00,FEW,SCT,0.00,221.2,WeatherDisplay:10.37,2013-08-19 20:00:00,
2013-08-19 10:10:00,76.0,64.7,29.94,East,86,3.0,12.0,68,0.00,SCT,SCT,0.00,792.5,WeatherDisplay:10.37,2013-08-19 20:10:00,
2013-08-19 10:20:00,75.4,64.5,29.94,ESE,107,1.0,12.0,69,0.00,SCT,SCT,0.00,174.1,WeatherDisplay:10.37,2013-08-19 20:20:00,
2013-08-19 10:30:00,75.1,64.2,29.94,East,79,3.0,12.0,69,0.00,SCT,SCT,0.00,216.1,WeatherDisplay:10.37,2013-08-19 20:30:00,
2013-08-19 10:40:00,76.3,65.4,29.94,ENE,77,7.0,14.0,69,0.00,SCT,SCT,0.00,1071.2,WeatherDisplay:10.37,2013-08-19 20:40:00,
2013-08-19 10:50:00,78.5,66.6,29.94,ENE,74,9.0,14.0,67,0.00,SCT,SCT,0.00,1295.0,WeatherDisplay:10.37,2013-08-19 20:50:00,
2013-08-19 11:00:00,79.4,67.1,29.93,ENE,59,6.0,15.0,66,0.00,SCT,SCT,0.00,1204.3,WeatherDisplay:10.37,2013-08-19 21:00:00,
2013-08-19 11:10:00,79.8,67.9,29.93,ENE,68,9.0,17.0,67,0.00,SCT,SCT,0.00,529.6,WeatherDisplay:10.37,2013-08-19 21:10:00,
2013-08-19 11:20:00,78.1,66.6,29.93,ENE,59,7.0,14.0,68,0.00,SCT,SCT,0.00,1273.8,WeatherDisplay:10.37,2013-08-19 21:20:00,
2013-08-19 11:30:00,79.2,67.3,29.93,ENE,63,10.0,16.0,67,0.00,SCT,SCT,0.00,543.0,WeatherDisplay:10.37,2013-08-19 21:30:00,
2013-08-19 11:40:00,78.1,67.1,29.92,ENE,62,7.0,17.0,69,0.00,SCT,SCT,0.00,733.0,WeatherDisplay:10.37,2013-08-19 21:40:00,
2013-08-19 11:50:00,77.9,66.9,29.92,ENE,71,10.0,17.0,69,0.00,SCT,SCT,0.00,361.3,WeatherDisplay:10.37,2013-08-19 21:50:00,
2013-08-19 12:00:00,77.5,67.4,29.92,ENE,65,9.0,17.0,71,0.00,SCT,SCT,0.00,473.6,WeatherDisplay:10.37,2013-08-19 22:00:00,
2013-08-19 12:10:00,78.3,68.1,29.92,ENE,76,6.0,16.0,71,0.00,SCT,SCT,0.00,829.4,WeatherDisplay:10.37,2013-08-19 22:10:00,
2013-08-19 12:20:00,78.8,67.8,29.91,ENE,66,5.0,14.0,69,0.00,SCT,SCT,0.00,314.2,WeatherDisplay:10.37,2013-08-19 22:20:00,
2013-08-19 12:30:00,79.0,67.9,29.91,ENE,77,8.0,15.0,69,0.00,SCT,SCT,0.00,796.1,WeatherDisplay:10.37,2013-08-19 22:30:00,
2013-08-19 12:40:00,80.4,67.6,29.91,ENE,57,13.0,18.0,65,0.00,SCT,SCT,0.00,807.9,WeatherDisplay:10.37,2013-08-19 22:40:00,
2013-08-19 12:50:00,79.8,67.4,29.90,ENE,65,13.0,17.0,66,0.00,SCT,SCT,0.00,974.6,WeatherDisplay:10.37,2013-08-19 22:50:00,
2013-08-19 13:00:00,77.9,66.5,29.90,ENE,67,12.0,21.0,68,0.00,SCT,SCT,0.00,332.6,WeatherDisplay:10.37,2013-08-19 23:00:00,
2013-08-19 13:10:00,76.9,66.8,29.90,East,84,9.0,17.0,71,0.00,SCT,SCT,0.00,347.1,WeatherDisplay:10.37,2013-08-19 23:10:00,
2013-08-19 13:20:00,76.2,66.5,29.90,East,85,6.0,18.0,72,0.00,SCT,SCT,0.00,366.4,WeatherDisplay:10.37,2013-08-19 23:20:00,
2013-08-19 13:30:00,76.1,65.6,29.89,East,88,10.0,23.0,70,0.00,SCT,SCT,0.00,257.2,WeatherDisplay:10.37,2013-08-19 23:30:00,
2013-08-19 13:40:00,75.3,65.2,29.89,East,82,6.0,17.0,71,0.00,SCT,SCT,0.00,295.5,WeatherDisplay:10.37,2013-08-19 23:40:00,
2013-08-19 13:50:00,75.2,65.6,29.89,East,88,6.0,14.0,72,0.00,SCT,SCT,0.00,246.8,WeatherDisplay:10.37,2013-08-19 23:50:00,
2013-08-19 14:00:00,75.0,65.0,29.90,East,83,7.0,14.0,71,0.00,SCT,SCT,0.00,135.8,WeatherDisplay:10.37,2013-08-20 00:00:00,
2013-08-19 14:10:00,74.5,66.4,29.89,East,89,6.0,14.0,76,0.00,SCT,SCT,0.00,145.7,WeatherDisplay:10.37,2013-08-20 00:10:00,
2013-08-19 14:20:00,74.0,66.0,29.90,East,89,2.0,14.0,76,0.00,SCT,SCT,0.00,182.6,WeatherDisplay:10.37,2013-08-20 00:20:00,
2013-08-19 14:30:00,73.6,66.3,29.89,East,79,7.0,15.0,78,0.00,SCT,SCT,0.00,204.9,WeatherDisplay:10.37,2013-08-20 00:30:00,
2013-08-19 14:40:00,73.8,66.9,29.89,East,83,6.0,8.0,79,0.00,SCT,SCT,0.00,161.9,WeatherDisplay:10.37,2013-08-20 00:40:00,
2013-08-19 14:50:00,74.3,66.6,29.89,East,95,5.0,9.0,77,0.00,SCT,SCT,0.00,167.5,WeatherDisplay:10.37,2013-08-20 00:50:00,
2013-08-19 15:00:00,74.6,66.9,29.89,East,91,2.0,7.0,77,0.00,SCT,SCT,0.00,160.9,WeatherDisplay:10.37,2013-08-20 01:00:00,
2013-08-19 15:10:00,75.1,67.4,29.89,ENE,72,7.0,10.0,77,0.00,SCT,SCT,0.00,232.1,WeatherDisplay:10.37,2013-08-20 01:10:00,
2013-08-19 15:20:00,75.8,68.1,29.89,East,82,7.0,10.0,77,0.00,SCT,SCT,0.00,203.1,WeatherDisplay:10.37,2013-08-20 01:20:00,
2013-08-19 15:30:00,76.2,67.3,29.89,East,86,3.0,9.0,74,0.00,SCT,SCT,0.00,319.3,WeatherDisplay:10.37,2013-08-20 01:30:00,
2013-08-19 15:40:00,76.9,68.0,29.88,East,79,7.0,14.0,74,0.00,SCT,SCT,0.00,223.0,WeatherDisplay:10.37,2013-08-20 01:40:00,
2013-08-19 15:50:00,76.0,67.1,29.88,ENE,72,7.0,15.0,74,0.00,SCT,SCT,0.00,274.4,WeatherDisplay:10.37,2013-08-20 01:50:00,
2013-08-19 16:00:00,75.6,66.7,29.88,East,86,8.0,15.0,74,0.00,SCT,SCT,0.00,136.0,WeatherDisplay:10.37,2013-08-20 02:00:00,
2013-08-19 16:10:00,74.3,66.2,29.88,ENE,78,9.0,16.0,76,0.00,SCT,SCT,0.00,90.3,WeatherDisplay:10.37,2013-08-20 02:10:00,
2013-08-19 16:20:00,73.4,65.8,29.88,East,88,7.0,13.0,77,0.00,SCT,SCT,0.00,66.6,WeatherDisplay:10.37,2013-08-20 02:20:00,
2013-08-19 16:30:00,73.2,65.6,29.88,East,84,6.0,15.0,77,0.00,SCT,SCT,0.00,66.4,WeatherDisplay:10.37,2013-08-20 02:30:00,
2013-08-19 16:40:00,73.4,65.7,29.87,East,95,7.0,14.0,77,0.00,SCT,SCT,0.00,87.0,WeatherDisplay:10.37,2013-08-20 02:40:00,
2013-08-19 16:50:00,74.8,67.1,29.87,East,84,2.0,9.0,77,0.00,SCT,SCT,0.00,197.0,WeatherDisplay:10.37,2013-08-20 02:50:00,
2013-08-19 17:00:00,76.0,66.7,29.87,East,86,9.0,14.0,73,0.00,SCT,SCT,0.00,51.0,WeatherDisplay:10.37,2013-08-20 03:00:00,
2013-08-19 17:10:00,75.9,66.6,29.87,East,85,9.0,13.0,73,0.00,SCT,SCT,0.00,125.2,WeatherDisplay:10.37,2013-08-20 03:10:00,
2013-08-19 17:20:00,75.8,65.7,29.87,ENE,75,9.0,14.0,71,0.00,SCT,SCT,0.00,108.0,WeatherDisplay:10.37,2013-08-20 03:20:00,
2013-08-19 17:30:00,75.6,65.9,29.87,East,97,8.0,18.0,72,0.00,SCT,SCT,0.00,90.7,WeatherDisplay:10.37,2013-08-20 03:30:00,
2013-08-19 17:40:00,75.8,65.7,29.86,East,87,8.0,15.0,71,0.00,SCT,SCT,0.00,72.8,WeatherDisplay:10.37,2013-08-20 03:40:00,
2013-08-19 17:50:00,75.8,66.1,29.87,East,96,7.0,17.0,72,0.00,SCT,SCT,0.00,56.6,WeatherDisplay:10.37,2013-08-20 03:50:00,
2013-08-19 18:00:00,75.6,65.9,29.87,East,84,6.0,13.0,72,0.00,SCT,SCT,0.00,38.0,WeatherDisplay:10.37,2013-08-20 04:00:00,
2013-08-19 18:10:00,75.2,65.9,29.87,East,94,5.0,12.0,73,0.00,SCT,SCT,0.00,28.8,WeatherDisplay:10.37,2013-08-20 04:10:00,
2013-08-19 18:20:00,74.8,66.0,29.87,East,94,1.0,10.0,74,0.00,SCT,SCT,0.00,16.3,WeatherDisplay:10.37,2013-08-20 04:20:00,
2013-08-19 18:30:00,74.4,65.6,29.88,East,82,3.0,12.0,74,0.00,SCT,SCT,0.00,6.9,WeatherDisplay:10.37,2013-08-20 04:30:00,
2013-08-19 18:40:00,74.2,65.4,29.88,ESE,104,2.0,6.0,74,0.00,SCT,SCT,0.00,0.3,WeatherDisplay:10.37,2013-08-20 04:40:00,
2013-08-19 18:50:00,73.8,65.0,29.88,ESE,103,0.0,6.0,74,0.00,SCT,SCT,0.00,0.0,WeatherDisplay:10.37,2013-08-20 04:50:00,
2013-08-19 19:00:00,73.3,64.9,29.89,East,96,0.0,4.0,75,0.00,SCT,SCT,0.00,0.0,WeatherDisplay:10.37,2013-08-20 05:00:00,
2013-08-19 19:10:00,72.7,65.1,29.89,East,96,0.0,1.0,77,0.00,CLR,SCT,0.00,0.0,WeatherDisplay:10.37,2013-08-20 05:10:00,
2013-08-19 19:20:00,72.1,64.9,29.90,East,96,0.0,0.0,78,0.00,CLR,SCT,0.00,0.0,WeatherDisplay:10.37,2013-08-20 05:20:00,
2013-08-19 19:30:00,71.6,64.7,29.90,East,96,0.0,1.0,79,0.00,CLR,SCT,0.00,0.0,WeatherDisplay:10.37,2013-08-20 05:30:00,
2013-08-19 19:40:00,71.0,64.2,29.90,East,96,0.0,3.0,79,0.00,CLR,SCT,0.00,0.0,WeatherDisplay:10.37,2013-08-20 05:40:00,
2013-08-19 19:50:00,70.4,63.9,29.90,East,96,2.0,4.0,80,0.00,CLR,SCT,0.00,0.0,WeatherDisplay:10.37,2013-08-20 05:50:00,
2013-08-19 20:00:00,69.8,63.7,29.91,East,96,0.0,6.0,81,0.00,CLR,SCT,0.00,0.0,WeatherDisplay:10.37,2013-08-20 06:00:00,
2013-08-19 20:10:00,69.4,63.7,29.91,East,96,2.0,4.0,82,0.00,FEW,SCT,0.00,0.0,WeatherDisplay:10.37,2013-08-20 06:10:00,
2013-08-19 20:20:00,69.1,63.7,29.91,East,96,1.0,5.0,83,0.00,FEW,SCT,0.00,0.0,WeatherDisplay:10.37,2013-08-20 06:20:00,
2013-08-19 20:30:00,69.1,64.1,29.91,East,97,1.0,4.0,84,0.00,FEW,SCT,0.00,0.0,WeatherDisplay:10.37,2013-08-20 06:30:00,
2013-08-19 20:40:00,69.4,64.0,29.92,East,96,1.0,4.0,83,0.00,FEW,SCT,0.00,0.0,WeatherDisplay:10.37,2013-08-20 06:40:00,
2013-08-19 20:50:00,69.7,63.9,29.92,ESE,111,3.0,7.0,82,0.00,FEW,SCT,0.00,0.0,WeatherDisplay:10.37,2013-08-20 06:50:00,
2013-08-19 21:00:00,69.8,64.1,29.92,East,100,2.0,7.0,82,0.00,FEW,SCT,0.00,0.0,WeatherDisplay:10.37,2013-08-20 07:00:00,
2013-08-19 21:10:00,70.0,64.2,29.92,ESE,119,1.0,7.0,82,0.00,FEW,SCT,0.00,0.0,WeatherDisplay:10.37,2013-08-20 07:10:00,
2013-08-19 21:20:00,70.1,64.3,29.93,East,98,1.0,5.0,82,0.00,FEW,SCT,0.00,0.0,WeatherDisplay:10.37,2013-08-20 07:20:00,
2013-08-19 21:30:00,70.0,64.2,29.93,ESE,105,1.0,5.0,82,0.00,FEW,SCT,0.00,0.0,WeatherDisplay:10.37,2013-08-20 07:30:00,
2013-08-19 21:40:00,69.9,64.1,29.93,ESE,105,0.0,4.0,82,0.00,FEW,SCT,0.00,0.0,WeatherDisplay:10.37,2013-08-20 07:40:00,
2013-08-19 21:50:00,69.6,63.9,29.93,SE,131,0.0,3.0,82,0.00,FEW,SCT,0.00,0.0,WeatherDisplay:10.37,2013-08-20 07:50:00,
2013-08-19 22:00:00,69.3,63.6,29.93,SE,131,0.0,3.0,82,0.00,FEW,SCT,0.00,0.0,WeatherDisplay:10.37,2013-08-20 08:00:00,
2013-08-19 22:10:00,68.9,63.5,29.93,SE,131,0.0,1.0,83,0.00,BKN,SCT,0.00,0.0,WeatherDisplay:10.37,2013-08-20 08:10:00,
2013-08-19 22:20:00,68.7,63.7,29.94,SE,131,1.0,4.0,84,0.00,BKN,SCT,0.00,0.0,WeatherDisplay:10.37,2013-08-20 08:20:00,
2013-08-19 22:30:00,68.7,64.0,29.94,SE,131,0.0,3.0,85,0.00,BKN,SCT,0.00,0.0,WeatherDisplay:10.37,2013-08-20 08:30:00,
2013-08-19 22:40:00,69.0,64.3,29.94,SE,129,0.0,4.0,85,0.00,BKN,SCT,0.00,0.0,WeatherDisplay:10.37,2013-08-20 08:40:00,
2013-08-19 22:50:00,69.3,64.3,29.94,SE,129,0.0,5.0,84,0.00,BKN,SCT,0.00,0.0,WeatherDisplay:10.37,2013-08-20 08:50:00,
2013-08-19 23:00:00,69.5,64.1,29.94,SE,129,0.0,4.0,83,0.00,BKN,SCT,0.00,0.0,WeatherDisplay:10.37,2013-08-20 09:00:00,
2013-08-19 23:10:00,69.6,64.2,29.94,SE,129,0.0,3.0,83,0.00,BKN,SCT,0.00,0.0,WeatherDisplay:10.37,2013-08-20 09:10:00,
2013-08-19 23:20:00,69.6,64.2,29.94,SE,129,0.0,4.0,83,0.00,BKN,SCT,0.00,0.0,WeatherDisplay:10.37,2013-08-20 09:20:00,
2013-08-19 23:30:00,69.6,63.9,29.94,SE,129,1.0,5.0,82,0.00,BKN,SCT,0.00,0.0,WeatherDisplay:10.37,2013-08-20 09:30:00,
2013-08-19 23:40:00,69.7,64.3,29.94,SE,129,2.0,4.0,83,0.00,BKN,SCT,0.00,0.0,WeatherDisplay:10.37,2013-08-20 09:40:00,
2013-08-19 23:50:00,69.8,64.1,29.94,SE,129,1.0,4.0,82,0.00,BKN,SCT,0.00,0.0,WeatherDisplay:10.37,2013-08-20 09:50:00,